Location: Milton Keynes
(52.0316°N, 0.7531°W)
Time: 20:21:14
(UTC+01:00)

ATV-4 - Visible Passes

Search period start: 25 September 2020 00:00
Search period end: 05 October 2020 00:00
Orbit: 308 x 318 km, 51.6° (Epoch: 02 November)

Date Brightness Start Highest point End Pass type
(mag) Time Alt. Az. Time Alt. Az. Time Alt. Az.
26 Sep 3.8 05:52:50 10° S 05:55:36 20° SE 05:59:03 10° E visible
28 Sep 3.2 06:16:31 10° SSW 06:19:49 31° SE 06:24:24 10° ENE visible
29 Sep 3.9 05:12:09 10° SSE 05:14:01 13° SE 05:16:06 10° E visible
01 Oct 3.5 05:37:38 10° S 05:40:34 23° SE 05:44:19 10° E visible
03 Oct 2.9 06:05:27 10° SSW 06:08:52 37° SE 06:13:47 10° ENE visible
04 Oct 3.7 05:02:39 11° S 05:04:54 17° SE 05:07:48 10° E visible
